www.pogodaiklimat.ru
ПОГОДА в Лалмикоре

Архив погоды в Лалмикоре (Джизакская область, Узбекистан)

Время
и дата
02:00 17.04
02:10 17.04
02:30 17.04
02:40 17.04
03:00 17.04
03:20 17.04
03:30 17.04
03:40 17.04
03:50 17.04
04:00 17.04
04:10 17.04
04:20 17.04
04:40 17.04
04:50 17.04
05:00 17.04
05:10 17.04
05:20 17.04
05:40 17.04
06:00 17.04
06:10 17.04
06:20 17.04
06:30 17.04
06:40 17.04
06:50 17.04
07:00 17.04
07:10 17.04
07:20 17.04
08:30 17.04
08:50 17.04
10:50 17.04
16:20 17.04
16:40 17.04
16:50 17.04
17:00 17.04
17:20 17.04
17:40 17.04
17:50 17.04
18:10 17.04
18:30 17.04
18:40 17.04
18:50 17.04
19:00 17.04
19:10 17.04
19:20 17.04
19:40 17.04
19:50 17.04
20:00 17.04
20:10 17.04
20:20 17.04
20:40 17.04
20:50 17.04
21:00 17.04
21:10 17.04
21:20 17.04
21:30 17.04
21:50 17.04
22:00 17.04
22:10 17.04
22:20 17.04
22:30 17.04
22:40 17.04
22:50 17.04
23:00 17.04
23:20 17.04
23:30 17.04
23:50 17.04
00:00 18.04
00:20 18.04
00:30 18.04
00:40 18.04
01:00 18.04
01:20 18.04
01:30 18.04
01:40 18.04
01:50 18.04
02:10 18.04
02:30 18.04
02:40 18.04
02:50 18.04
03:10 18.04
03:20 18.04
03:30 18.04
03:50 18.04
04:00 18.04
04:10 18.04
04:20 18.04
04:40 18.04
04:50 18.04
05:10 18.04
05:40 18.04
05:50 18.04
06:10 18.04
06:20 18.04
06:30 18.04
06:40 18.04
06:50 18.04
07:00 18.04
07:10 18.04
07:20 18.04
07:40 18.04
07:50 18.04
08:00 18.04
08:10 18.04
08:20 18.04
10:50 18.04
11:30 18.04
12:10 20.04
12:20 20.04
12:30 20.04
12:40 20.04
12:50 20.04
13:00 20.04
13:10 20.04
13:20 20.04
13:30 20.04
13:50 20.04
14:00 20.04
14:10 20.04
14:20 20.04
14:30 20.04
14:40 20.04
14:50 20.04
15:00 20.04
15:10 20.04
15:20 20.04
15:30 20.04
15:40 20.04
15:50 20.04
16:00 20.04
16:10 20.04
16:20 20.04
16:30 20.04
16:40 20.04
16:50 20.04
17:00 20.04
17:10 20.04
17:20 20.04
17:30 20.04
17:40 20.04
17:50 20.04
18:00 20.04
18:10 20.04
18:20 20.04
18:30 20.04
Ветер
(напр.,м/с)
Видимость Явления Солнечная радиация
(Вт/м2)
Т
(С)
Тd
(С)
f
(%)
Тe
(С)
Тes
(С)
Комфортность P
(гПа)
Po
(гПа)
Тmin
(С)
Tmax
(С)
R
(мм)
СЗ 1.9
{2.8}
+10.7 +10.7 100 +9 +9 1021.5 934.7 +10.7 +10.5
З 1.8
{2.8}
+10.7 +10.7 100 +9 +9 1021.4 934.6 +10.8 +10.7
СЗ 1.7
{3.0}
+10.6 +10.6 100 +9 +9 1021.1 934.3 +10.7 +10.3
СЗ 1.7
{2.7}
+10.3 +10.3 100 +9 +9 1021.1 934.3 +10.6 +10.2
СЗ 1.9
{3.2}
+10.1 +10.1 100 +8 +8 1021.1 934.3 +10.2 +9.9
З 1.6
{2.5}
+10.1 +10.1 100 +9 +9 1021.2 934.4 +10.2 +10.0
СЗ 1.9
{2.6}
+10.1 +10.1 100 +8 +8 1021.2 934.4 +10.1 +10.0
СЗ 1.9
{2.8}
+10.1 +10.1 100 +8 +8 1021.2 934.4 +10.1 +10.0
З 1.9
{2.9}
+10.0 +10.0 100 +8 +8 1021.2 934.4 +10.1 +9.9
З 1.8
{2.8}
+9.8 +9.8 100 +8 +8 1021.2 934.4 +10.1 +9.8
З 2.0
{3.1}
+10.0 +10.0 100 +8 +8 1021.1 934.3 +10.0 +9.8
З 1.9
{3.0}
+10.0 +10.0 100 +8 +8 1021.0 934.2 +10.1 +10.0
З 2.0
{3.5}
+10.0 +10.0 100 +8 +8 1021.2 934.4 +10.0 +9.8
З 2.1
{3.2}
+10.1 +10.1 100 +8 +8 1021.2 934.4 +10.1 +10.0
СЗ 1.9
{3.3}
+10.0 +10.0 100 +8 +8 1021.3 934.5 +10.2 +10.0
СЗ 2.0
{3.0}
+9.9 +9.9 100 +8 +8 1021.3 934.5 +10.2 +9.9
СЗ 1.8
{3.0}
+9.8 +9.8 100 +8 +8 1021.2 934.4 +9.9 +9.7
СЗ 1.7
{3.0}
+9.4 +9.4 100 +8 +8 1021.0 934.2 +9.5 +9.4
СЗ 1.1
{2.6}
+9.3 +9.3 100 +8 +8 1021.0 934.2 +9.4 +9.2
СЗ 1.5
{3.0}
+9.7 +9.7 100 +8 +8 1021.0 934.2 +9.7 +9.2
СЗ 1.8
{3.2}
+10.2 +10.2 100 +9 +9 1021.1 934.3 +10.3 +9.7
СЗ 1.6
{2.8}
+10.9 +10.9 100 +10 +10 1021.1 934.3 +10.9 +10.2
СЗ 1.5
{2.9}
+11.3 +11.3 100 +10 +10 1021.2 934.4 +11.3 +10.9
СЗ 1.8
{3.3}
+11.6 +11.6 100 +10 +10 1021.2 934.4 +11.6 +11.3
СЗ 1.5
{3.0}
+11.9 +11.9 100 +11 +11 1021.4 934.6 +11.8 +11.5
СЗ 1.1
{3.4}
+12.4 +12.4 100 +12 +12 1021.5 934.7 +12.4 +11.9
С 1.4
{3.1}
+12.7 +12.7 100 +12 +12 1021.6 934.8 +12.7 +12.4
С 3.2
{7.1}
+14.0 +14.0 100 +13 +13 1021.6 934.8 +14.1 +13.6
С 3.6
{6.9}
+14.9 +14.9 100 +14 +14 1021.6 934.8 +14.9 +14.4
СВ 7.0
{13.1}
+16.6 +13.6 82 +15 +15 1020.9 934.1 +17.2 +16.6
СВ 7.3
{12.1}
+18.4 +14.8 80 +18 +18 1017.4 930.9 +18.5 +18.2
СВ 6.8
{11.7}
+18.2 +13.8 75 +18 +18 1017.3 930.8 +18.3 +18.1
СВ 5.9
{11.3}
+18.3 +14.2 77 +18 +18 1017.4 930.9 +18.3 +18.1
СВ 6.5
{11.2}
+18.0 +14.1 78 +17 +17 1017.3 930.8 +18.3 +18.0
СВ 6.6
{12.3}
+17.7 +14.3 80 +17 +17 1017.2 930.7 +18.0 +17.6
СВ 5.6
{10.9}
+17.4 +14.6 83 +17 +17 1017.2 930.7 +17.6 +17.4
СВ 6.4
{11.1}
+17.3 +14.7 85 +16 +16 1017.2 930.7 +17.5 +17.3
СВ 6.0
{10.1}
+17.0 +15.1 89 +16 +16 1017.1 930.6 +17.2 +17.0
СВ 5.3
{10.0}
+16.6 +15.5 93 +16 +16 1017.2 930.7 +16.8 +16.6
СВ 5.6
{9.1}
+16.4 +15.5 95 +15 +15 1017.1 930.6 +16.6 +16.4
СВ 5.2
{8.8}
+16.1 +16.1 100 +15 +15 1017.1 930.6 +16.4 +16.1
СВ 4.7
{9.1}
+15.9 +15.9 100 +15 +15 1017.1 930.6 +16.1 +15.9
С 3.9
{6.9}
+15.6 +15.6 100 +15 +15 1017.1 930.6 +15.9 +15.6
С 3.8
{6.4}
+15.4 +15.4 100 +14 +14 1017.2 930.7 +15.6 +15.4
С 3.0
{4.8}
+15.0 +15.0 100 +14 +14 1017.2 930.7 +15.2 +15.0
С 2.7
{4.4}
+14.7 +14.7 100 +14 +14 1017.2 930.7 +15.0 +14.7
С 2.8
{4.6}
+14.6 +14.6 100 +14 +14 1017.2 930.7 +14.8 +14.6
С 3.0
{5.3}
+14.6 +14.6 100 +14 +14 1017.3 930.8 +14.7 +14.6
С 2.8
{5.6}
+14.3 +14.3 100 +13 +13 1017.3 930.8 +14.6 +14.3
С 2.0
{4.0}
+13.9 +13.9 100 +13 +13 1017.2 930.7 +14.1 +13.8
С 1.6
{4.0}
+13.5 +13.5 100 +13 +13 1017.2 930.7 +13.9 +13.5
С 0.8
{2.7}
+13.0 +13.0 100 +13 +13 1017.2 930.7 +13.4 +13.0
СЗ 0.6
{2.3}
+12.7 +12.7 100 +13 +13 1017.2 930.7 +13.1 +12.7
С 0.4
{1.3}
+12.6 +12.6 100 +14 +14 1017.2 930.7 +12.7 +12.4
С 0.9
{1.9}
+12.2 +12.2 100 +12 +12 1017.1 930.6 +12.6 +12.1
С 1.5
{2.6}
+12.7 +12.7 100 +12 +12 1017.1 930.6 +12.7 +12.5
СВ 0.7
{1.7}
+12.5 +12.5 100 +13 +13 1017.1 930.6 +12.7 +12.5
СВ 0.4
{0.9}
+12.2 +12.2 100 +13 +13 1017.1 930.6 +12.5 +12.2
С 0.8
{1.6}
+11.9 +11.9 100 +12 +12 1017.0 930.5 +12.2 +11.9
С 1.1
{2.5}
+11.7 +11.7 100 +11 +11 1016.9 930.4 +11.9 +11.7
С 1.1
{2.1}
+11.8 +11.8 100 +11 +11 1016.8 930.3 +11.8 +11.7
С 1.1
{2.1}
+11.7 +11.7 100 +11 +11 1016.7 930.2 +11.8 +11.7
С 1.1
{1.9}
+11.8 +11.8 100 +11 +11 1016.6 930.1 +11.8 +11.7
С 0.9
{1.5}
+11.6 +11.6 100 +11 +11 1016.5 930.0 +11.8 +11.6
С 0.9
{1.4}
+11.4 +11.4 100 +11 +11 1016.4 929.9 +11.6 +11.4
С 0.9
{1.6}
+11.3 +11.3 100 +11 +11 1016.0 929.6 +11.3 +11.2
СВ 0.8
{1.5}
+11.3 +11.3 100 +11 +11 1016.0 929.6 +11.4 +11.3
С 1.4
{2.1}
+11.0 +11.0 100 +10 +10 1015.8 929.4 +11.2 +10.9
С 1.2
{1.9}
+10.9 +10.9 100 +10 +10 1015.6 929.2 +11.0 +10.8
С 1.1
{1.8}
+10.9 +10.9 100 +10 +10 1015.5 929.1 +11.0 +10.9
С 1.2
{1.8}
+11.0 +11.0 100 +10 +10 1015.2 928.8 +11.0 +10.8
З 1.1
{1.5}
+10.8 +10.8 100 +10 +10 1015.0 928.6 +11.4 +10.8
З 1.4
{2.0}
+11.1 +11.1 100 +10 +10 1014.9 928.5 +11.2 +10.8
З 1.7
{2.3}
+11.3 +11.3 100 +10 +10 1014.6 928.3 +11.3 +11.1
СЗ 1.2
{2.8}
+11.9 +11.9 100 +11 +11 1014.4 928.1 +11.9 +11.3
СЗ 1.3
{2.3}
+11.6 +11.6 100 +11 +11 1014.2 927.9 +11.8 +11.4
СЗ 1.7
{2.5}
+11.2 +11.2 100 +10 +10 1014.1 927.8 +11.3 +11.1
СЗ 2.1
{3.0}
+11.2 +11.2 100 +10 +10 1014.0 927.7 +11.3 +11.1
З 1.9
{3.2}
+11.1 +11.1 100 +10 +10 1014.0 927.7 +11.3 +11.1
СЗ 1.9
{3.2}
+11.0 +11.0 100 +10 +10 1013.9 927.6 +11.3 +11.0
СЗ 1.6
{3.2}
+10.7 +10.7 100 +9 +9 1013.9 927.6 +11.0 +10.7
СЗ 1.4
{2.6}
+10.6 +10.6 100 +10 +10 1013.8 927.5 +10.7 +10.5
СЗ 1.2
{3.1}
+10.3 +10.3 100 +9 +9 1013.7 927.4 +10.6 +10.3
С 1.0
{2.5}
+10.1 +10.1 100 +9 +9 1013.7 927.4 +10.3 +10.1
С 1.6
{4.0}
+10.1 +10.1 100 +9 +9 1013.6 927.3 +10.1 +10.0
С 1.4
{3.3}
+10.1 +10.1 100 +9 +9 1013.5 927.2 +10.1 +10.0
СЗ 1.0
{2.5}
+9.9 +9.9 100 +9 +9 1013.5 927.2 +10.1 +9.9
С 1.1
{3.2}
+10.1 +10.1 100 +9 +9 1013.5 927.2 +10.1 +9.8
З 1.3
{2.2}
+9.9 +9.9 100 +9 +9 1013.6 927.3 +10.0 +9.9
С 0.9
{2.3}
+9.7 +9.7 100 +9 +9 1013.7 927.4 +9.8 +9.7
С 1.0
{2.2}
+9.7 +9.7 100 +9 +9 1013.7 927.4 +9.7 +9.6
С 1.2
{2.7}
+10.0 +10.0 100 +9 +9 1013.6 927.3 +10.0 +9.6
С 0.7
{1.8}
+10.4 +10.4 100 +10 +10 1013.7 927.4 +10.4 +9.9
С 0.9
{2.4}
+10.8 +10.8 100 +10 +10 1013.8 927.5 +10.8 +10.4
С 1.6
{3.1}
+11.2 +11.2 100 +10 +10 1013.8 927.5 +11.2 +10.8
СВ 2.1
{4.2}
+11.7 +11.7 100 +10 +10 1013.7 927.4 +11.7 +11.2
С 1.1
{3.5}
+12.3 +12.3 100 +12 +12 1013.7 927.4 +12.2 +11.7
С 1.4
{3.5}
+12.6 +12.6 100 +12 +12 1013.7 927.4 +12.6 +12.2
С 1.6
{3.8}
+12.9 +12.9 100 +12 +12 1013.7 927.4 +13.1 +12.6
СВ 3.9
{5.8}
+13.3 +13.3 100 +11 +11 1013.7 927.4 +13.3 +13.1
СВ 4.2
{6.3}
+13.6 +13.6 100 +12 +12 1013.7 927.4 +13.6 +13.3
СВ 3.0
{5.3}
+14.1 +14.1 100 +13 +13 1013.6 927.3 +14.1 +13.6
СВ 2.7
{4.7}
+14.3 +14.3 100 +13 +13 1013.6 927.3 +14.3 +13.9
СВ 2.5
{6.1}
+14.7 +14.7 100 +14 +14 1013.6 927.3 +14.8 +14.3
СВ 5.9
{10.1}
+18.7 +16.7 88 +19 +19 1012.4 926.2 +19.0 +18.3
СВ 6.6
{10.1}
+19.4 +16.5 83 +21 +21 комфорт 1012.2 926.0 +19.4 +18.9
З 2.9
{5.7}
+23.4 +16.3 64 +28 +28 душно 1010.4 924.4 +24.4 +23.4
З 3.0
{6.2}
+23.3 +16.8 67 +28 +28 душно 1010.4 924.4 +24.0 +23.3
З 2.4
{5.2}
+23.3 +17.4 70 +29 +29 душно 1010.4 924.4 +23.5 +23.1
СЗ 2.7
{5.3}
+23.3 +16.3 65 +28 +28 душно 1010.4 924.4 +23.5 +23.3
СЗ 3.4
{6.6}
+23.9 +17.7 68 +28 +28 душно 1010.4 924.4 +23.9 +23.3
СЗ 2.4
{5.5}
+24.5 +17.4 65 +29 +29 душно 1010.5 924.5 +24.7 +23.6
СЗ 2.5
{5.6}
+25.1 +17.8 64 +29 +29 душно 1010.5 924.5 +25.3 +24.2
СЗ 2.5
{5.2}
+24.8 +16.2 59 +28 +28 жарко 1010.5 924.5 +25.5 +24.6
СЗ 2.7
{5.3}
+24.3 +15.6 58 +27 +27 жарко 1010.5 924.5 +25.1 +24.2
С 2.5
{5.8}
+24.1 +16.3 62 +28 +28 душно 1010.7 924.6 +24.8 +24.1
С 1.8
{5.2}
+23.9 +17.7 68 +28 +28 душно 1010.7 924.6 +24.4 +23.6
С 1.5
{3.8}
+23.4 +14.9 59 +27 +27 душно 1010.7 924.6 +24.0 +23.5
С 1.8
{4.7}
+23.5 +15.9 62 +27 +27 душно 1010.5 924.5 +23.5 +23.3
С 2.1
{5.2}
+23.0 +15.7 63 +27 +27 душно 1010.5 924.5 +23.6 +23.0
С 1.8
{3.9}
+23.1 +14.7 59 +27 +27 душно 1010.4 924.4 +23.1 +22.9
СЗ 1.5
{3.5}
+23.1 +15.5 62 +27 +27 душно 1010.3 924.3 +23.2 +23.1
С 2.0
{4.3}
+23.0 +15.2 61 +27 +27 душно 1010.4 924.4 +23.1 +23.0
С 1.4
{2.8}
+23.1 +15.8 63 +27 +27 душно 1010.7 924.6 +23.1 +23.0
С 1.3
{2.7}
+23.0 +14.8 60 +27 +27 душно 1010.8 924.7 +23.1 +23.0
СВ 1.3
{2.6}
+22.9 +15.3 62 +27 +27 душно 1010.9 924.8 +23.1 +22.9
ЮВ 2.2
{3.7}
+21.4 +17.8 80 +26 +26 душно 1011.0 924.9 +22.9 +21.4
ЮВ 3.1
{4.3}
+20.8 +18.3 85 +25 +25 комфорт 1011.2 925.1 +21.4 +20.8
ЮВ 3.7
{5.6}
+20.4 +19.2 93 +24 +24 комфорт 1011.3 925.2 +20.8 +20.4
Ю 3.8
{6.6}
+19.9 +18.0 89 +23 +23 комфорт 1011.5 925.4 +20.4 +20.0
Ю 4.4
{7.4}
+19.2 +19.1 99 +21 +21 комфорт 1011.7 925.6 +19.9 +19.3 0.7
Ю 4.7
{7.1}
+17.7 +17.7 100 +17 +17 1011.8 925.7 +19.2 +17.7 0.7
Ю 5.6
{8.9}
+17.4 +17.4 100 +17 +17 1011.7 925.6 +17.7 +17.3 0.2
ЮВ 5.3
{8.3}
+17.4 +17.4 100 +17 +17 1011.6 925.5 +17.5 +17.4
Ю 4.6
{6.9}
+17.5 +17.5 100 +17 +17 1011.7 925.6 +17.6 +17.4
Ю 4.9
{6.9}
+17.3 +17.3 100 +17 +17 1011.7 925.6 +17.6 +17.3
Ю 5.2
{7.8}
+17.2 +17.2 100 +16 +16 1011.9 925.8 +17.3 +17.2 0.2
Ю 5.3
{7.6}
+16.8 +16.8 100 +16 +16 1012.2 926.0 +17.3 +16.8 0.1
Ю 5.6
{9.1}
+16.9 +16.9 100 +16 +16 1012.0 925.9 +16.9 +16.8 0.1
Ю 5.9
{8.8}
+16.7 +16.7 100 +16 +16 1012.0 925.9 +16.9 +16.6
Ю 6.1
{9.3}
+16.8 +16.8 100 +16 +16 1012.0 925.9 +16.8 +16.6
Ю 6.7
{10.9}
+16.6 +16.6 100 +15 +15 1012.0 925.9 +16.8 +16.6
Ю 6.5
{9.8}
+16.6 +16.6 100 +15 +15 1012.0 925.9 +16.7 +16.6
Ю 5.5
{8.7}
+16.5 +16.5 100 +15 +15 1012.2 926.0 +16.7 +16.5
Местоположение метеостанции Лалмикор (Джизакская область, Узбекистан): широта 39.92 долгота 67.45 высота над уровнем моря 0 м.
В архиве по умолчанию представлена погода в Лалмикоре за последние 1-2 суток. Обновление информации о фактической погоде в базе происходит ежечасно! Архивные данные за месяц целиком и за предыдущие месяцы Вы можете получить, выбрав интересующий диапазон дат из раскрывающегося списка и нажав кнопку "Ввод!".
*Определитесь, кто Вы:
Внимание! Время в таблицах - местное (без учета летнего времени). Для получения всемирного времени необходимо вычесть поправку, которая равна 5 ч.
Смотрите также архив погоды на ближайших метеорологических станциях:
Партнеры нашего сайта:      
Пояснения к столбцам:
  • Ветер - указаны скорость ветра в м/с - средняя за 10 мин, порывы в срок и между сроками (в фигурных скобках) и направление, откуда дует ветер: С - северный,
  • СВ - северо-восточный, В - восточный, ЮВ - юго-восточный, Ю - южный, ЮЗ - юго-западный, З - западный, СЗ - северо-западный.
  • Видимость - горизонтальная дальность видимости в метрах или километрах. При видимости от 1 до 10 км при отсутствии осадков обычно наблюдается дымка, при ухудшении видимости до 1 км и менее - туман. В сухую погоду видимость может ухудшаться дымом, пылью или мглою.
  • Явления - указаны атмосферные явления, наблюдавшиеся в срок или в последний час перед сроком.
  • Солнечная радиация - мощность потока солнечного излучения на поверхность земли и предметов в Вт/м2.
  • T - Температура воздуха - температура, измеренная на высоте 2 м над землей.
  • Td - Температура точки росы - температура, при понижении до которой содержащийся в воздухе водяной пар достигнет насыщения.
  • f - Относительная влажность воздуха - влажноcть воздуха, измеренная на высоте 2 м над землей.
  • Te - Эффективная температура - температура, которую ощущает одетый по сезону человек в тени. Характеристика душности погоды. При расчете учитывается влияние влажности воздуха и скорости ветра на теплоощущения человека.
  • Tes - Эффективная температура на солнце - температура, которую ощущает человек, с поправкой на солнечный нагрев. Характеристика знойности погоды. Зависит от высоты солнца над горизонтом, облачности и скорости ветра. Ночью, в пасмурную погоду, а также при ветре 12 м/с и более поправка равна нулю.
  • P - Атмосферное давление - приведенное к уровню моря атмосферное давление.
  • Po - Атмосферное давление - измеренное на уровне метеостанции атмосферное давление.
  • Tmin - Минимальная температура - минимум температуры воздуха на высоте 2 м над землей.
  • Tmax - Максимальная температура - максимум температуры воздуха на высоте 2 м над землей.
  • R - Количество осадков - Количество выпавших осадков за период времени, мм. При наведении курсора мыши на число - период времени, за который выпало указанное количество осадков.